Location: *
(51.0333°S, 178.4667°E)
Time: 06:09:56
(UTC+00:00)

ATLAS 5 CENTAUR R/B - Pass Details

Date: 15 November 2019
Orbit: 563 x 1096 km, 63.3° (Epoch: 29 November)

Event Time Altitude Azimuth Distance (km) Brightness Sun altitude
Rises 09:35:24 0° 337° (NNW) 3,897 5.3 -14.4°
Reaches altitude 10° 09:38:12 10° 341° (NNW) 2,925 4.6 -14.7°
Maximum altitude 09:44:58 54° 55° (NE) 1,245 2.7 -15.2°
Drops below altitude 10° 09:51:11 10° 130° (SE) 2,688 4.9 -15.7°
Sets 09:53:39 0° 134° (SE) 3,561 5.6 -15.9°
